Chatsworth, GA

7:59 PM EDT on August 29, 2016 (GMT -0400)
Dalton Municipal

Weather History for KDNN - April, 2013

Change the Weather History Date:

Thursday, April 4, 2013

  Actual Average Record
Temperature  
Mean Temperature 42 °F -  
Max Temperature 44 °F 68 °F 87 °F (1999)
Min Temperature 41 °F 45 °F 30 °F (1962)
Degree Days  
Heating Degree Days 22    
Moisture  
Dew Point 43 °F    
Average Humidity 99    
Maximum Humidity 100    
Minimum Humidity 93    
Precipitation  
Precipitation 0.06 in - - ()
Sea Level Pressure  
Sea Level Pressure 30.07 in    
Wind  
Wind Speed 1 mph (South)    
Max Wind Speed 7 mph    
Max Gust Speed -    
Visibility 5 miles    
Events Rain    
Averages and records for this station are not official NWS values.
T = Trace of Precipitation, MM = Missing Value Source: NWS Daily Summary

Daily Weather History Graph

Daily Weather History Graph

Search for Another Location

Airport or City:

Trip Planner

Search our weather history database for the weather conditions in past years. The results will help you decide how hot, cold, wet, or windy it might be!

Date:

Astronomy

Apr. 04, 2013 Rise Set
Actual Time 7:22 AM EDT 8:03 PM EDT
Civil Twilight 6:56 AM EDT 8:28 PM EDT
Nautical Twilight 6:26 AM EDT 8:58 PM EDT
Astronomical Twilight 5:55 AM EDT 9:29 PM EDT
Moon 3:34 AM EDT (4/4) 2:33 PM EDT (4/4)
Length of Visible Light 13h 32m
Length of Day
12h 41m
Waning Crescent, 34% of the Moon is Illuminated
Apr 4
Waning Crescent
Apr 10
New
Apr 18
First Quarter
Apr 25
Full
May 2
Last Quarter

Hourly Weather History & Observations

Time (EDT) Temp. Windchill Dew Point Humidity Pressure Visibility Wind Dir Wind Speed Gust Speed Precip Events Conditions
12:15 AM 44.6 °F 42.2 °F 44.6 °F 100% 30.17 in 10.0 mi SW 4.6 mph - N/A Rain Light Rain
12:35 AM 44.6 °F - 44.6 °F 100% 30.16 in 7.0 mi Calm Calm - 0.01 in Rain Light Rain
12:55 AM 44.6 °F - 44.6 °F 100% 30.15 in 7.0 mi Calm Calm - 0.01 in Rain Light Rain
1:15 AM 44.6 °F - 44.6 °F 100% 30.15 in 7.0 mi Calm Calm - N/A Rain Rain
1:35 AM 44.6 °F - 44.6 °F 100% 30.17 in 7.0 mi Calm Calm - N/A Rain Light Rain
1:55 AM 44.6 °F - 44.6 °F 100% 30.17 in 7.0 mi Calm Calm - N/A Rain Light Rain
2:15 AM 44.6 °F - 44.6 °F 100% 30.17 in 5.0 mi Calm Calm - N/A Rain Light Rain
2:35 AM 44.6 °F - 44.6 °F 100% 30.16 in 5.0 mi Calm Calm - N/A Rain Light Rain
2:55 AM 44.6 °F - 44.6 °F 100% 30.15 in 4.0 mi Calm Calm - N/A Rain Rain
3:15 AM 44.6 °F - 44.6 °F 100% 30.14 in 3.0 mi Calm Calm - N/A Rain Light Rain
3:35 AM 44.6 °F - 44.6 °F 100% 30.13 in 3.0 mi Calm Calm - N/A Rain Light Rain
3:55 AM 44.6 °F - 44.6 °F 100% 30.12 in 3.0 mi Calm Calm - N/A Rain Rain
4:15 AM 44.6 °F - 44.6 °F 100% 30.11 in 3.0 mi Calm Calm - 0.01 in   Drizzle
4:35 AM 44.6 °F - 44.6 °F 100% 30.10 in 3.0 mi Calm Calm - 0.01 in Rain Rain
4:55 AM 44.6 °F - 44.6 °F 100% 30.10 in 3.0 mi Calm Calm - 0.01 in Rain Light Rain
5:15 AM 44.6 °F - 44.6 °F 100% 30.09 in 3.0 mi Calm Calm - N/A Rain Light Rain
5:35 AM 44.6 °F - 44.6 °F 100% 30.08 in 3.0 mi Calm Calm - N/A Rain Rain
5:55 AM 44.6 °F - 44.6 °F 100% 30.08 in 3.0 mi Calm Calm - N/A Rain Light Rain
6:15 AM 44.6 °F - 44.6 °F 100% 30.08 in 3.0 mi Calm Calm - N/A Rain Rain
6:35 AM 44.6 °F 41.4 °F 44.6 °F 100% 30.06 in 3.0 mi NNW 5.8 mph - 0.01 in Rain Light Rain
6:55 AM 44.6 °F 42.2 °F 44.6 °F 100% 30.06 in 7.0 mi NNW 4.6 mph - 0.01 in   Overcast
7:15 AM 42.8 °F - 42.8 °F 100% 30.06 in 7.0 mi Calm Calm - N/A   Light Drizzle
7:35 AM 42.8 °F 41.1 °F 42.8 °F 100% 30.06 in 7.0 mi NW 3.5 mph - N/A   Overcast
7:55 AM 42.8 °F - 42.8 °F 100% 30.07 in 7.0 mi Calm Calm - N/A   Drizzle
8:15 AM 44.6 °F - 44.6 °F 100% 30.08 in 5.0 mi Calm Calm - N/A Rain Light Rain
8:35 AM 44.6 °F 43.1 °F 44.6 °F 100% 30.09 in 4.0 mi WNW 3.5 mph - N/A   Drizzle
8:55 AM 44.6 °F 43.1 °F 44.6 °F 100% 30.10 in 3.0 mi West 3.5 mph - N/A Rain Light Rain
9:15 AM 44.6 °F - 44.6 °F 100% 30.10 in 3.0 mi Calm Calm - 0.01 in Rain Rain
9:35 AM 44.6 °F - 44.6 °F 100% 30.10 in 5.0 mi Calm Calm - 0.01 in   Drizzle
9:55 AM 44.6 °F - 42.8 °F 93% 30.09 in 7.0 mi Calm Calm - 0.01 in   Drizzle
10:15 AM 44.6 °F - 44.6 °F 100% 30.09 in 4.0 mi Calm Calm - N/A Rain Rain
10:35 AM 44.6 °F - 44.6 °F 100% 30.08 in 2.5 mi Calm Calm - 0.01 in Rain Rain
10:55 AM 42.8 °F - 42.8 °F 100% 30.09 in 7.0 mi Calm Calm - 0.01 in Rain Light Rain
11:15 AM 42.8 °F 41.1 °F 41.0 °F 93% 30.09 in 7.0 mi South 3.5 mph - N/A Rain Light Rain
11:35 AM 42.8 °F 39.3 °F 41.0 °F 93% 30.10 in 7.0 mi SE 5.8 mph - N/A Rain Rain
11:55 AM 42.8 °F 38.6 °F 41.0 °F 93% 30.10 in 10.0 mi SE 6.9 mph - N/A Rain Light Rain
12:35 PM 42.8 °F 40.1 °F 41.0 °F 93% 30.11 in 7.0 mi SSE 4.6 mph - N/A Rain Light Rain
12:55 PM 42.8 °F 40.1 °F 41.0 °F 93% 30.10 in 7.0 mi SE 4.6 mph - N/A Rain Light Rain
1:15 PM 42.8 °F 39.3 °F 41.0 °F 93% 30.09 in 7.0 mi SE 5.8 mph - N/A   Drizzle
1:35 PM 42.8 °F 40.1 °F 41.0 °F 93% 30.08 in 7.0 mi SE 4.6 mph - N/A   Drizzle
1:55 PM 42.8 °F 40.1 °F 41.0 °F 93% 30.07 in 10.0 mi SE 4.6 mph - N/A Rain Rain
2:15 PM 42.8 °F - 41.0 °F 93% 30.06 in 7.0 mi Calm Calm - N/A   Drizzle
2:35 PM 42.8 °F - 41.0 °F 93% 30.05 in 10.0 mi Calm Calm - N/A   Light Drizzle
2:55 PM 42.8 °F - 41.0 °F 93% 30.05 in 5.0 mi Calm Calm - N/A   Light Drizzle
3:15 PM 41.0 °F - 41.0 °F 100% 30.04 in 4.0 mi Calm Calm - N/A   Drizzle
3:35 PM 41.0 °F - 41.0 °F 100% 30.03 in 2.5 mi Calm Calm - N/A   Heavy Drizzle
3:55 PM 42.8 °F - 42.8 °F 100% 30.03 in 2.5 mi Calm Calm - N/A   Drizzle
4:15 PM 41.0 °F - 41.0 °F 100% 30.02 in 3.0 mi Calm Calm - N/A   Drizzle
4:35 PM 42.8 °F - 42.8 °F 100% 30.02 in 2.5 mi Calm Calm - 0.01 in   Drizzle
4:55 PM 42.8 °F - 42.8 °F 100% 30.02 in 3.0 mi Calm Calm - 0.01 in   Light Drizzle
5:15 PM 42.8 °F - 42.8 °F 100% 30.02 in 2.5 mi Calm Calm - N/A   Drizzle
5:35 PM 42.8 °F - 42.8 °F 100% 30.02 in 1.8 mi Calm Calm - N/A   Drizzle
5:55 PM 42.8 °F 41.1 °F 42.8 °F 100% 30.01 in 2.5 mi SW 3.5 mph - N/A   Light Drizzle
6:15 PM 42.8 °F - 42.8 °F 100% 30.01 in 3.0 mi Calm Calm - N/A   Overcast
6:35 PM 42.8 °F - 42.8 °F 100% 30.00 in 2.5 mi Calm Calm - N/A   Drizzle
6:55 PM 42.8 °F - 42.8 °F 100% 29.99 in 4.0 mi Calm Calm - N/A   Light Drizzle
7:15 PM 42.8 °F - 42.8 °F 100% 29.99 in 5.0 mi Calm Calm - N/A   Overcast
7:35 PM 42.8 °F - 42.8 °F 100% 29.99 in 7.0 mi Calm Calm - N/A   Overcast
7:55 PM 42.8 °F - 42.8 °F 100% 30.00 in 7.0 mi Calm Calm - N/A   Overcast
8:15 PM 42.8 °F - 42.8 °F 100% 29.99 in 5.0 mi Calm Calm - N/A   Overcast
8:35 PM 42.8 °F - 42.8 °F 100% 30.00 in 2.5 mi Calm Calm - N/A   Overcast
8:55 PM 42.8 °F - 42.8 °F 100% 29.99 in 2.0 mi Calm Calm - N/A   Overcast
9:15 PM 42.8 °F - 42.8 °F 100% 29.99 in 2.5 mi Calm Calm - N/A   Overcast
9:35 PM 42.8 °F - 42.8 °F 100% 29.99 in 2.5 mi Calm Calm - N/A   Overcast
9:55 PM 42.8 °F - 42.8 °F 100% 29.99 in 3.0 mi Calm Calm - N/A   Overcast
10:15 PM 42.8 °F - 42.8 °F 100% 30.00 in 3.0 mi Calm Calm - N/A   Overcast
10:35 PM 42.8 °F - 42.8 °F 100% 30.00 in 3.0 mi Calm Calm - N/A   Overcast
10:55 PM 42.8 °F - 42.8 °F 100% 30.00 in 4.0 mi Calm Calm - N/A   Overcast
11:15 PM 42.8 °F - 42.8 °F 100% 29.99 in 3.0 mi Calm Calm - N/A   Overcast
11:35 PM 42.8 °F - 42.8 °F 100% 29.99 in 2.5 mi Calm Calm - N/A   Overcast
11:55 PM 42.8 °F - 42.8 °F 100% 29.99 in 3.0 mi Calm Calm - N/A   Overcast